Location: Squamish
(49.7000°N, 123.1500°W)
Time: 09:41:49
(UTC-07:00)

Daily predictions for brighter satellites

Satellite Brightness Start Highest point End
(mag) Time Altitude Azimuth Time Altitude Azimuth Time Altitude Azimuth
Cosmos 1802 Rocket 4.5 21:29:48 10° SSW 21:36:07 70° WNW 21:42:33 10° N
Okean 1 Rocket 3.1 21:33:01 10° N 21:37:25 84° W 21:41:46 10° S
Cosmos 1898 Rocket 3.7 21:34:40 10° NNW 21:39:57 66° ENE 21:45:13 10° SE
DNEPR-1 R/B 4.1 21:37:04 10° S 21:41:05 39° ESE 21:45:37 10° NE
Cosmos 2208 Rocket 4.4 21:37:21 10° S 21:42:13 42° ESE 21:47:05 10° NE
Cosmos 1975 Rocket 3.7 21:38:33 10° SSE 21:42:33 37° E 21:46:33 10° NNE
Cosmos 1674 Rocket 4.0 21:39:08 10° SSW 21:43:35 69° WNW 21:48:04 10° N
Cosmos 1378 Rocket 3.5 21:39:31 10° S 21:43:50 76° E 21:48:09 10° NNE
SL-23 DEB 3.7 21:40:55 10° WSW 21:44:10 68° SSE 21:48:49 10° ENE
Cosmos 1975 2.8 21:40:29 10° N 21:44:35 84° ENE 21:48:37 10° S
ELECTRON R/B 4.4 21:43:35 10° N 21:46:00 56° E 21:48:23 10° SSE
COSMOS 2487 2.4 21:43:20 10° SSW 21:46:50 83° ESE 21:50:22 10° NNE
Resurs 01 Rocket 3.3 21:44:32 10° SSW 21:48:31 33° W 21:52:31 10° NNW
Cosmos 1184 Rocket 4.4 21:47:21 10° SW 21:50:33 39° WNW 21:53:45 10° N
ERS-1 Rocket 3.1 21:48:36 10° SSE 21:53:33 64° ENE 21:58:32 10° N
USA 234 3.3 21:47:05 10° ENE 21:53:40 73° SE 22:00:14 10° SW
Cosmos 1544 Rocket 4.2 21:51:38 10° N 21:55:49 40° ENE 21:59:55 10° SE
MetOp-A 4.2 21:51:27 10° SSE 21:56:49 85° WSW 22:02:14 10° NNW
NOSS 3-2 (A) 3.6 21:52:19 10° SSW 21:58:02 52° ESE 22:04:28 10° NE
CSL-04 DEB 4.5 21:55:25 10° SSE 21:59:38 85° ENE 22:03:47 10° NNW
Cosmos 2233 Rocket 4.0 21:53:56 10° S 22:00:03 76° E 22:06:16 10° NNE
Cosmos 2322 Rocket 2.2 21:54:31 10° NNW 22:00:11 79° ENE 22:05:39 11° SSE
Cosmos 2082 Rocket 3.3 21:55:31 10° SW 22:01:00 49° NW 22:06:34 10° NNE
NOSS 3-2 (C) 3.9 21:56:02 10° S 22:01:34 41° ESE 22:07:42 10° NE
Cosmos 2150 Rocket 4.3 22:00:42 10° NNW 22:06:05 58° ENE 22:10:55 12° SE
SL-16 R/B 2.3 22:01:01 10° NNW 22:06:45 89° WSW 22:12:11 11° SSE
Cosmos 990 Rocket 4.0 22:03:29 10° NNW 22:08:43 81° ENE 22:13:38 12° SSE
SJ 16-02 2.6 22:11:35 10° N 22:15:30 29° ENE 22:19:00 12° ESE
SPOT 5 2.8 22:12:31 12° SSE 22:16:26 63° ENE 22:20:57 10° N
ARGOS 3.7 22:13:32 10° S 22:18:50 57° W 22:24:11 10° NNW
Helios 1A 3.0 22:17:11 13° SSE 22:20:51 74° ENE 22:25:01 10° N
Landsat 7 4.1 22:18:33 14° SE 22:22:33 57° ENE 22:27:14 10° N
Timation 2 Rocket 3.9 22:17:02 10° SSW 22:22:53 63° ESE 22:28:55 10° NE
Meteor 1-19 Rocket 4.3 22:16:59 10° S 22:22:54 81° E 22:28:51 10° NNE
Cosmos 2298 Rocket 4.0 22:20:04 10° NNW 22:25:25 88° ENE 22:29:54 15° SSE
CZ-2C R/B 4.1 22:22:06 13° SE 22:26:19 37° ENE 22:31:24 10° N
Shenzhou-11 Module 3.3 22:27:08 10° SW 22:29:30 22° S 22:30:08 20° SSE
Aureole 2 Rocket 2.1 22:28:11 10° NNW 22:31:17 64° ENE 22:33:00 22° SE
BREEZE-M R/B 2.4 22:29:05 10° SW 22:32:14 38° SSE 22:34:17 13° E
CENTAUR R/B 3.1 22:30:06 10° S 22:35:28 34° ESE 22:41:33 10° NE
Lacrosse 5 rocket 1.8 22:31:15 10° NW 22:35:38 61° NNE 22:39:13 13° ESE
Cosmos 2084 4.0 22:32:06 10° S 22:35:59 35° SE 22:39:42 10° ENE
USA 32 4.1 22:30:57 10° N 22:36:13 82° W 22:41:10 12° S
ISS -3.5 22:33:44 10° SW 22:36:50 41° SSE 22:39:56 10° E
Cosmos 2034 Rocket 4.3 22:34:17 14° SSE 22:39:24 50° E 22:45:19 10° NNE
Terra 2.1 22:37:46 18° SE 22:41:13 57° ENE 22:45:54 10° N
USA 245 4.1 22:39:56 12° S 22:42:47 44° W 22:46:44 10° NNW
Cosmos 1937 Rocket 4.0 22:39:00 10° NNW 22:44:00 54° WSW 22:48:17 14° S
ATLAS 3B R/B 3.0 22:38:19 10° SW 22:45:26 72° NW 22:52:18 10° NE
Cosmos 1464 Rocket 4.0 22:39:17 10° S 22:45:38 74° E 22:52:01 10° NNE
Cosmos 468 Rocket 4.3 22:43:14 10° SSW 22:48:31 73° WNW 22:53:46 10° NNE
CARTOSAT-1 3.6 22:46:03 20° SSE 22:48:59 73° ENE 22:53:19 10° N
YAOGAN 11 4.4 22:49:29 21° SE 22:52:21 59° ENE 22:56:49 10° N
Cosmos 2360 Rocket 2.2 22:46:55 10° NNW 22:52:36 89° ENE 22:56:35 20° SSE
Meteor 1-23 Rocket 4.3 22:48:54 15° S 22:53:32 63° E 22:59:02 10° NNE
Cosmos 2219 Rocket 3.2 22:53:58 10° NNW 22:59:11 38° NE 23:03:26 15° ESE
Okean 2 4.0 22:57:36 24° SSE 22:59:37 41° E 23:03:34 10° NNE
Cosmos 1763 Rocket 3.6 22:55:54 10° SSW 23:01:14 86° WNW 23:06:33 10° NNE
Helios 1B rocket 2.4 22:58:08 10° NNE 23:02:18 83° ESE 23:05:28 17° SSW
CZ-4C R/B 3.2 22:55:49 10° NW 23:02:35 60° NE 23:09:26 14° ESE
Cosmos 841 Rocket 3.5 22:57:57 10° SSW 23:03:10 73° ESE 23:08:27 10° NNE
Cosmos 540 Rocket 3.8 23:01:20 20° S 23:04:35 46° ESE 23:09:32 10° NNE
Cosmos 2333 Rocket 3.2 23:00:06 10° NNW 23:05:25 38° NE 23:09:45 15° ESE
SPOT 1/Viking Rocket 4.1 23:02:00 15° S 23:06:13 52° W 23:11:17 10° NNW
Cosmos 1340 Rocket 3.0 23:02:41 13° SSW 23:06:13 72° WNW 23:10:19 10° N
Cosmos 1455 Rocket 4.1 23:02:45 10° NNW 23:06:51 41° W 23:10:22 13° SSW
DMSP B5D2-2 4.4 23:02:39 10° N 23:07:57 70° WNW 23:13:12 10° SSW
CZ-2C R/B 3.4 23:02:54 10° NNE 23:08:07 38° E 23:11:00 23° SSE
Iridium 90 3.4 23:08:09 49° SSW 23:08:38 75° W 23:10:52 10° N
IGS 5A 3.6 23:06:21 22° S 23:08:55 70° WSW 23:13:05 10° NNW
COSMOS 2428 3.1 23:03:22 10° NNW 23:09:00 57° NE 23:12:46 21° SE
Cosmos 1356 Rocket 4.1 23:07:48 26° SE 23:09:34 39° E 23:13:36 10° NNE
BREEZE-M DEB 3.7 23:06:44 10° W 23:09:56 89° N 23:10:58 33° E
H-2A R/B 3.7 23:06:35 10° SSW 23:10:38 25° W 23:14:47 10° NW
BREEZE-M R/B 4.4 23:01:33 10° WSW 23:11:43 81° SSE 23:17:25 10° ENE
Cosmos 1356 3.6 23:10:10 20° SSW 23:12:29 72° WNW 23:15:58 10° N
Cosmos 1544 3.8 23:10:56 10° N 23:14:29 40° ENE 23:15:52 28° ESE
Cosmos 1025 Rocket 3.3 23:13:39 27° SSE 23:15:40 50° E 23:19:56 10° NNE
SL-16 R/B 4.5 23:12:25 10° N 23:16:07 17° NE 23:19:49 10° ENE
Meteor 2-4 Rocket 4.3 23:10:52 10° SSW 23:16:11 56° WNW 23:21:42 10° N
SAR-Lupe-4 4.1 23:15:45 29° SE 23:17:09 45° ENE 23:20:37 10° N
Cosmos 372 Rocket 3.9 23:13:11 10° NNW 23:18:22 90° NNW 23:21:16 26° SSE
Meteor 1-29 3.0 23:15:38 10° NNE 23:19:08 79° WNW 23:21:06 24° SSW
Cosmos 1833 4.2 23:16:57 13° SSW 23:22:09 72° ESE 23:27:50 10° NNE
Okean 1-7 Rocket 4.1 23:33:00 31° SE 23:34:45 47° E 23:39:08 10° NNE
SAR-Lupe-1 4.2 23:34:01 38° SE 23:35:08 61° ENE 23:38:43 10° N
Cosmos 1125 Rocket 3.6 23:30:01 10° NNW 23:35:17 74° WSW 23:38:01 29° S
Cosmos 2322 4.0 23:30:09 10° NW 23:35:48 61° WSW 23:38:57 26° S
USA 234 3.9 23:30:12 10° ENE 23:36:36 58° NNW 23:43:00 10° W
H-2A R/B 3.8 23:34:44 15° ESE 23:37:02 22° ENE 23:40:22 10° N
Cosmos 292 Rocket 4.2 23:33:44 10° SW 23:38:27 63° WNW 23:43:12 10° NNE
Cosmos 1766 3.8 23:36:41 10° N 23:40:32 49° ENE 23:41:50 34° SE
Cosmos 1892 Rocket 4.5 23:39:45 28° ESE 23:40:55 33° E 23:44:50 10° NNE
Cosmos 2297 Rocket 4.1 23:42:12 13° ESE 23:43:11 13° E 23:45:47 10° ENE
Cosmos 2322 Rocket 4.1 23:39:44 10° WNW 23:43:33 19° W 23:47:22 10° SW
Meteor 1-22 Rocket 4.2 23:39:17 10° N 23:44:45 70° ENE 23:47:20 31° SSE
Cosmos 2227 Rocket 3.9 23:44:45 15° ESE 23:45:48 16° E 23:49:03 10° ENE
Cosmos 2237 Rocket 3.0 23:42:11 10° NNW 23:47:37 44° NE 23:51:27 19° ESE
SL-16 R/B 4.3 23:46:39 10° WNW 23:50:01 16° W 23:53:24 10° SW
Cosmos 1092 Rocket 4.1 23:43:52 10° NNW 23:50:13 74° W 23:54:02 26° S
Cosmos 1066 Rocket 4.0 23:48:10 27° S 23:51:10 84° ESE 23:56:38 10° NNE
NOSS 3-2 (C) 4.3 23:46:18 10° WSW 23:52:20 55° NW 23:59:07 10° NE
SJ 16-02 2.4 23:50:05 10° NW 23:54:10 37° WSW 23:56:00 25° SSW
